Location: São Paulo
(23.5507°S, 46.6334°W)
Time: 07:36:13
(UTC-03:00)

Transit 2A - Pass Details

Date: 19 February 2026
Orbit: 590 x 954 km, 66.7° (Epoch: 10 March)

Event Time Altitude Azimuth Distance (km) Brightness Sun altitude
Rises 23:41:12 0° 328° (NNW) 3,044 - -54.2°
Reaches altitude 10° 23:43:39 10° 323° (NW) 2,082 - -54.4°
Maximum altitude 23:48:11 52° 246° (WSW) 790 - -54.6°
Drops below altitude 10° 23:52:29 10° 169° (S) 1,966 - -54.8°
Sets 23:54:44 0° 164° (SSE) 2,856 - -54.9°
